Location: Unspecified
(0.0000°N, 0.0000°E)
Time: 05:24:21
(UTC+00:00)

Vanguard 2 - Pass Details

Date: 09 December 2017
Orbit: 552 x 2940 km, 32.9° (Epoch: 17 January)

Event Time Altitude Azimuth Distance (km) Brightness Sun altitude
Rises 06:47:54 0° 232° (SW) 6,334 11.9 12.8°
Reaches altitude 10° 06:55:00 10° 212° (SSW) 5,622 11.9 14.4°
Maximum altitude 07:04:18 16° 179° (S) 5,260 12.2 16.5°
Drops below altitude 10° 07:13:37 10° 147° (SSE) 5,641 13.1 18.7°
Sets 07:20:46 0° 127° (SE) 6,365 13.7 20.3°
